Location: Fluertsh�userhof
(48.7537°N, 10.3850°E)
Time: 06:31:49
(UTC+00:00)

ATLAS 2AS CENTAUR R/B - Pass Details

Date: 18 September 2020
Orbit: 939 x 1273 km, 63.7° (Epoch: 26 October)

Event Time Altitude Azimuth Distance (km) Brightness Sun altitude
Rises 21:02:15 0° 221° (SW) 4,199 5.7 -32.5°
Enters shadow 21:04:48 - 221° (SW) 3,327 5.2 -32.7°
Exits shadow 21:11:56 70° 234° (SW) 1,344 3.0 -33.5°
Maximum altitude 21:13:00 85° 310° (NW) 1,281 2.9 -33.6°
Drops below altitude 10° 21:20:54 10° 41° (NE) 3,217 5.3 -34.3°
Sets 21:23:39 0° 42° (NE) 4,155 5.9 -34.6°
